Branson, MO

2:35 PM CDT on April 26, 2017 (GMT -0500)
Branson

Weather History for KBBG - December, 2012

Change the Weather History Date:

Wednesday, December 5, 2012

  Actual Average (KHRO) Record (KHRO)
Temperature  
Mean Temperature 45 °F -  
Max Temperature 57 °F 52 °F 77 °F (1998)
Min Temperature 33 °F 33 °F 11 °F (1911)
Degree Days  
Heating Degree Days 20    
Moisture  
Dew Point 32 °F    
Average Humidity 65    
Maximum Humidity 93    
Minimum Humidity 36    
Precipitation  
Precipitation 0.00 in - - ()
Sea Level Pressure  
Sea Level Pressure 30.26 in    
Wind  
Wind Speed 2 mph (SE)    
Max Wind Speed 13 mph    
Max Gust Speed -    
Visibility 10 miles    
Events      
Averages and records for this station are not official NWS values.
T = Trace of Precipitation, MM = Missing Value Source: NWS Daily Summary

Daily Weather History Graph

Daily Weather History Graph

Search for Another Location

Airport or City:

Trip Planner

Search our weather history database for the weather conditions in past years. The results will help you decide how hot, cold, wet, or windy it might be!

Date:

Astronomy

Dec. 05, 2012 Rise Set
Actual Time 7:10 AM CST 4:57 PM CST
Civil Twilight 6:41 AM CST 5:25 PM CST
Nautical Twilight 6:09 AM CST 5:57 PM CST
Astronomical Twilight 5:38 AM CST 6:28 PM CST
Moon 11:38 PM CST (12/5) 11:41 AM CST (12/5)
Length of Visible Light 10h 43m
Length of Day
9h 46m
Waning Gibbous, 59% of the Moon is Illuminated
Dec 5
Waning Gibbous
Dec 6
Last Quarter
Dec 13
New
Dec 19
First Quarter
Dec 28
Full

Hourly Weather History & Observations

Time (CST) Temp. Dew Point Humidity Pressure Visibility Wind Dir Wind Speed Gust Speed Precip Events Conditions
12:15 AM 41.0 °F 30.2 °F 65% 30.33 in 10.0 mi Calm Calm - N/A   Clear
12:35 AM 39.2 °F 32.0 °F 75% 30.32 in 10.0 mi Calm Calm - N/A   Clear
12:55 AM 39.2 °F 32.0 °F 75% 30.33 in 10.0 mi Calm Calm - N/A   Clear
1:15 AM 41.0 °F 32.0 °F 70% 30.32 in 10.0 mi Calm Calm - N/A   Clear
1:35 AM 39.2 °F 32.0 °F 75% 30.33 in 10.0 mi Calm Calm - N/A   Clear
1:55 AM 39.2 °F 30.2 °F 70% 30.33 in 10.0 mi Calm Calm - N/A   Clear
2:15 AM 37.4 °F 32.0 °F 81% 30.31 in 10.0 mi Calm Calm - N/A   Clear
2:35 AM 39.2 °F 32.0 °F 75% 30.31 in 10.0 mi Calm Calm - N/A   Clear
2:55 AM 37.4 °F 30.2 °F 75% 30.32 in 10.0 mi Calm Calm - N/A   Clear
3:15 AM 37.4 °F 32.0 °F 81% 30.32 in 10.0 mi Calm Calm - N/A   Clear
3:35 AM 35.6 °F 32.0 °F 87% 30.33 in 10.0 mi Calm Calm - N/A   Clear
3:55 AM 35.6 °F 32.0 °F 87% 30.33 in 10.0 mi Calm Calm - N/A   Clear
4:15 AM 35.6 °F 32.0 °F 87% 30.32 in 10.0 mi Calm Calm - N/A   Clear
4:35 AM 33.8 °F 32.0 °F 93% 30.33 in 10.0 mi Calm Calm - N/A   Clear
4:55 AM 35.6 °F 32.0 °F 87% 30.33 in 10.0 mi Calm Calm - N/A   Clear
5:15 AM 33.8 °F 32.0 °F 93% 30.33 in 10.0 mi Calm Calm - N/A   Clear
5:35 AM 33.8 °F 32.0 °F 93% 30.32 in 10.0 mi Calm Calm - N/A   Clear
6:45 AM 35.6 °F 32.0 °F 87% 30.33 in 10.0 mi Calm Calm - N/A   Partly Cloudy
8:45 AM 42.8 °F 35.6 °F 76% 30.34 in 10.0 mi Calm Calm - N/A   Partly Cloudy
9:50 AM 50.0 °F 32.0 °F 50% 30.34 in 10.0 mi ESE 6.9 mph - N/A   Partly Cloudy
10:45 AM 51.8 °F 32.0 °F 47% 30.32 in 10.0 mi ESE 11.5 mph - N/A   Scattered Clouds
11:56 AM 53.6 °F 28.4 °F 38% 30.30 in 10.0 mi ESE 11.5 mph - N/A   Scattered Clouds
1:45 PM 55.4 °F 32.0 °F 41% 30.23 in 10.0 mi ESE 12.7 mph - N/A   Mostly Cloudy
2:45 PM 57.2 °F 30.2 °F 36% 30.22 in 10.0 mi SE 11.5 mph - N/A   Mostly Cloudy
4:45 PM 51.8 °F 32.0 °F 47% 30.20 in 10.0 mi ESE 5.8 mph - N/A   Mostly Cloudy
5:45 PM 48.2 °F 33.8 °F 58% 30.19 in 10.0 mi SE 5.8 mph - N/A   Mostly Cloudy
6:45 PM 48.2 °F 32.0 °F 54% 30.18 in 10.0 mi SE 3.5 mph - N/A   Scattered Clouds
7:45 PM 48.2 °F 32.0 °F 54% 30.15 in 10.0 mi SE 9.2 mph - N/A   Mostly Cloudy
8:15 PM 50.0 °F 30.2 °F 47% 30.14 in 10.0 mi SE 6.9 mph - N/A   Clear
8:35 PM 48.2 °F 32.0 °F 54% 30.14 in 10.0 mi ESE 8.1 mph - N/A   Clear
8:45 PM 48.2 °F 30.2 °F 50% 30.14 in 10.0 mi SE 8.1 mph - N/A   Mostly Cloudy
8:55 PM 48.2 °F 30.2 °F 50% 30.13 in 10.0 mi SE 8.1 mph - N/A   Clear
9:15 PM 48.2 °F 30.2 °F 50% 30.13 in 10.0 mi SE 8.1 mph - N/A   Clear
9:35 PM 48.2 °F 30.2 °F 50% 30.12 in 10.0 mi SE 6.9 mph - N/A   Clear
9:55 PM 48.2 °F 30.2 °F 50% 30.12 in 10.0 mi SE 8.1 mph - N/A   Clear
10:15 PM 48.2 °F 30.2 °F 50% 30.13 in 10.0 mi Calm Calm - N/A   Clear